Location: Alulod
(14.2076°N, 120.8898°E)
Time: 23:44:35
(UTC+00:00)

USA 238 DEB - Visible Passes

Search period start: 14 March 2026 00:00
Search period end: 24 March 2026 00:00
Orbit: 883 x 1328 km, 63.4° (Epoch: 10 January)

Date Brightness Start Highest point End Pass type
(mag) Time Alt. Az. Time Alt. Az. Time Alt. Az.
14 Mar 3.4 10:59:26 10° SSW 11:05:15 79° WNW 11:11:19 10° NNE visible
14 Mar 6.0 20:37:15 10° N 20:43:50 28° ENE 20:50:35 10° ESE visible
15 Mar 6.1 12:08:33 10° W 12:11:21 13° WNW 12:14:14 10° NNW visible
15 Mar 6.5 19:54:09 10° NNE 19:58:35 16° ENE 20:03:04 10° E visible
15 Mar 4.2 21:41:49 10° NNW 21:49:52 78° WSW 21:58:07 10° SSE visible
16 Mar 5.4 11:21:18 10° WSW 11:26:09 27° WNW 11:31:12 10° N visible
16 Mar 4.6 20:56:56 10° NNW 21:04:53 64° ENE 21:13:03 10° SE visible
17 Mar 4.2 10:35:27 10° SW 10:41:07 53° WNW 10:47:01 10° NNE visible
17 Mar 5.4 20:12:32 10° N 20:19:49 38° ENE 20:27:18 10° SE visible
18 Mar 6.1 19:28:47 10° NNE 19:34:39 22° ENE 19:40:38 10° ESE visible
18 Mar 4.2 21:17:51 10° NW 21:25:44 58° WSW 21:33:47 10° S visible
19 Mar 6.0 10:58:13 10° WSW 11:02:08 18° WNW 11:06:12 10° NNW visible
19 Mar 6.6 18:46:44 10° NE 18:49:19 12° ENE 18:51:55 10° ENE visible
19 Mar 4.1 20:32:43 10° NNW 20:40:47 85° ENE 20:49:04 10° SSE visible
20 Mar 4.8 19:48:02 10° N 19:55:45 51° ENE 20:03:43 10° SE visible
21 Mar 5.6 19:03:52 10° N 19:10:40 30° ENE 19:17:38 10° ESE visible
21 Mar 4.4 20:54:05 10° NW 21:01:34 42° WSW 21:09:13 10° S visible
22 Mar 6.3 10:36:02 10° W 10:38:12 12° WNW 10:40:24 10° NW visible
22 Mar 6.2 18:21:15 12° NNE 18:25:25 17° ENE 18:30:24 10° E visible
22 Mar 4.0 20:09:08 12° NNW 20:16:39 72° WSW 20:24:52 10° SSE visible
23 Mar 4.2 19:29:49 54° N 19:31:41 69° ENE 19:39:54 10° SSE visible
23 Mar 5.3 21:17:31 10° WNW 21:22:16 17° WSW 21:27:05 10° SW visible
